Voltar ao catálogo

FLYLAB 1

AtivoCiênciaSSO
NORAD 68472·PAYLOAD·🇫🇷 France

Lançado Mar 30, 2026 de Vandenberg Space Force Base

Loading…

Próximas Passagens (próximas 24 horas)

TLE

AtualizadoSource: Space-Track

Época: Sep 14, 2026, 07:56 UTC

1 68472U 26067BJ  26257.33090696  .00000691  00000-0  73580-4 0  9999
2 68472  97.7726 214.1446 0005188 102.9111 257.2688 14.92046866 25018

Acompanhe FLYLAB 1 em tempo real com AllMySat

Download on the App Store